ATLAS CENTAUR 2 R/B 1 00694U 63047A 25137.45797074 .00003840 00000-0 46557-3 0 9995 2 00694 30.3562 49.1933 0553397 352.6480 6.6272 14.10579914 89741 THOR AGENA D R/B 1 00733U 64002A 25137.59008034 .00000366 00000-0 14803-3 0 9996 2 00733 99.1130 129.9554 0033783 41.8377 318.5379 14.33806776195867 SL-3 R/B 1 00877U 64053B 25137.40660696 .00000435 00000-0 11088-3 0 9998 2 00877 65.0755 119.5990 0051621 43.2327 317.2806 14.61064181223503 SL-8 R/B 1 02802U 67045B 25137.49687477 .00000281 00000-0 85884-4 0 9992 2 02802 74.0109 181.1171 0065778 260.1396 99.2332 14.45360294 46225 SL-8 R/B 1 03230U 68040B 25137.50730840 .00003985 00000-0 31399-3 0 9994 2 03230 74.0315 197.6687 0023959 96.7414 263.6501 15.00919737 45546 OAO 2 1 03597U 68110A 25137.38931750 .00000283 00000-0 81622-4 0 9990 2 03597 34.9917 119.2381 0005675 336.5836 23.4596 14.47102071976188 ISIS 1 1 03669U 69009A 25137.54482405 .00000124 00000-0 87965-4 0 9994 2 03669 88.4544 187.5943 1707584 327.0646 23.4394 11.30266923315070 SERT 2 1 04327U 70009A 25137.62417897 .00000047 00000-0 11990-3 0 9998 2 04327 99.2379 92.5261 0004467 191.2735 341.8532 13.58693895739687 SL-3 R/B 1 05118U 71028B 25137.48285021 .00021576 00000-0 46283-3 0 9998 2 05118 81.2438 52.2411 0023122 251.5580 108.3150 15.44298117942751 ASTEX 1 1 05560U 71089A 25137.53571747 .00000679 00000-0 17421-3 0 9998 2 05560 92.7247 55.9135 0016206 13.3754 346.7878 14.50375353819372 SL-8 R/B 1 05730U 71119B 25137.35601016 .00012062 00000-0 65201-3 0 9992 2 05730 73.8896 6.9121 0571547 34.0336 329.6118 14.32315466612997 COSMOS 482 DESCENT CRAFT 1 6073U 72023E 25130.02495443 .08088373 12542-4 65849-4 0 9993 2 6073 51.9455 241.9030 0035390 103.6551 63.6433 16.48653575751319 OAO 3 (COPERNICUS) 1 06153U 72065A 25137.60234603 .00000427 00000-0 92498-4 0 9996 2 06153 35.0043 183.8034 0007183 260.0192 234.4691 14.59701249802908 ATLAS CENTAUR R/B 1 06155U 72065B 25137.58108774 .00001274 00000-0 18071-3 0 9999 2 06155 35.0013 239.6360 0034039 38.8751 321.4389 14.76729009797458 SL-8 R/B 1 08459U 75112B 25137.57607419 .00000282 00000-0 10162-3 0 9994 2 08459 74.0611 203.5393 0015698 4.3883 355.7405 14.38002922589302 SL-3 R/B 1 10114U 77057B 25137.55511609 .00010763 00000-0 28762-3 0 9998 2 10114 97.5515 293.8888 0007038 267.2738 92.7701 15.38249251622714 SEASAT 1 1 10967U 78064A 25137.47072774 .00000446 00000-0 16420-3 0 9994 2 10967 108.0025 224.1526 0001894 230.7418 129.3560 14.45817117463693 SL-14 R/B 1 11267U 79011B 25137.41792875 .00000729 00000-0 70232-4 0 9992 2 11267 82.5261 17.5372 0015341 332.3634 27.6768 14.91457539484613 SL-8 R/B 1 11574U 79089B 25137.48644313 .00000353 00000-0 11528-3 0 9993 2 11574 74.0687 279.2143 0015513 170.0902 190.0564 14.42124108393405 SL-14 R/B 1 11672U 80005B 25137.50465165 .00000775 00000-0 76614-4 0 9997 2 11672 82.5161 228.0443 0017376 73.0159 287.2962 14.90478594432369 SL-8 R/B 1 12139U 81003B 25137.41238986 .00026165 00000-0 77676-3 0 9993 2 12139 82.9342 201.4448 0309063 119.6174 243.6222 14.98770862270135 SL-3 R/B 1 12465U 81046B 25137.56544915 .00010880 00000-0 31848-3 0 9998 2 12465 81.2340 283.0649 0021524 328.3872 31.6072 15.34875608392917 METEOR PRIRODA 1 12585U 81065A 25137.08093514 .00040327 00000-0 40010-3 0 9993 2 12585 97.4890 187.0401 0003975 277.6982 82.3826 15.65683845397656 SL-3 R/B 1 12904U 81103B 25137.55693973 .00004618 00000-0 22548-3 0 9997 2 12904 81.1610 199.7724 0017778 214.4997 145.5080 15.17941274928261 SL-3 R/B 1 13068U 82013B 25137.55684529 .00005175 00000-0 24376-3 0 9997 2 13068 81.1739 147.0318 0024991 96.9807 263.4266 15.19054925359352 SL-3 R/B 1 13154U 82039B 25137.59033118 .00003276 00000-0 20825-3 0 9992 2 13154 81.1823 196.1639 0034015 209.1589 150.7738 15.08083108336985 SL-3 R/B 1 13403U 82079B 25137.50519449 .00005602 00000-0 24831-3 0 9996 2 13403 81.1476 181.7336 0027805 86.8781 273.5631 15.21083139332625 SL-3 R/B 1 13819U 83010B 25137.12731953 .00009089 00000-0 24153-3 0 9997 2 13819 81.1073 3.2013 0019509 1.8295 358.3012 15.37915093312250 COSMOS 1455 1 14032U 83037A 25137.55293455 .00110459 00000-0 76866-3 0 9993 2 14032 82.4946 78.6603 0007415 150.6015 209.5667 15.73993242301600 SL-3 R/B 1 14208U 83075B 25137.58779758 .00010376 00000-0 33936-3 0 9996 2 14208 97.6001 128.0003 0024771 198.9374 161.0948 15.31606724284745 COSMOS 1500 1 14372U 83099A 25137.50450305 .00358507 49971-4 86764-3 0 9992 2 14372 82.4808 328.7841 0001447 289.8671 70.2449 15.96311471278279 COSMOS 1536 1 14699U 84013A 25137.57145719 .00007175 00000-0 33530-3 0 9999 2 14699 82.5485 41.0645 0014276 234.8677 125.1220 15.19541657227592 SL-14 R/B 1 14820U 84027B 25137.57218967 .00000495 00000-0 54244-4 0 9990 2 14820 82.5411 162.6385 0016853 230.7185 129.2537 14.85621250203668 SL-8 R/B 1 15483U 85006B 25137.59605755 .00000407 00000-0 14406-3 0 9999 2 15483 74.0452 85.8726 0017224 73.1043 99.5784 14.37581394111476 SL-12 R/B(2) 1 15772U 85042D 25137.59156676 .00000058 00000-0 47770-4 0 9996 2 15772 71.1091 353.2368 0036809 228.6444 162.2814 14.21880317 72300 SL-14 R/B 1 15945U 85069B 25137.57895030 .00000669 00000-0 73410-4 0 9997 2 15945 82.5249 303.2876 0020533 93.1340 267.2226 14.86066934128856 SL-16 R/B 1 16182U 85097B 25137.50025656 -.00000036 00000-0 60039-5 0 9997 2 16182 71.0046 44.0882 0008295 332.5538 200.4079 14.16551299 45281 SL-14 R/B 1 16496U 86006B 25110.55455537 .00000916 00000-0 10152-3 0 9992 2 16496 82.5290 203.6638 0021669 269.0652 90.8082 14.86099223101201 COSMOS 1743 1 16719U 86034A 25137.42142341 .00022196 00000-0 51592-3 0 9999 2 16719 82.5407 20.0131 0004744 289.7973 70.2762 15.42189169134393 SL-14 R/B 1 16792U 86046B 25137.60934835 .00000573 00000-0 63637-4 0 9999 2 16792 82.4830 359.7964 0024608 124.2112 236.1441 14.85232966 82454 SL-14 R/B 1 16882U 86055B 25137.49984016 .00000603 00000-0 67322-4 0 9991 2 16882 82.5225 44.9708 0017811 228.7282 305.0097 14.85276423 75392 EGS (AJISAI) 1 16908U 86061A 25137.61998912 -.00000084 00000-0 96607-4 0 9993 2 16908 50.0097 283.7522 0011163 252.8361 161.3660 12.44511936431136 COSMOS 1812 1 17295U 87003A 25137.57458017 .00035204 00000-0 55953-3 0 9991 2 17295 82.4969 153.4616 0004975 117.2513 242.9247 15.53141465 98029 SL-14 R/B 1 17567U 87024B 25137.14383591 .00000577 00000-0 63422-4 0 9999 2 17567 82.5298 11.3311 0018963 157.9877 202.2158 14.85771568 44092 COSMOS 1833 1 17589U 87027A 25137.53037553 -.00000296 00000-0 -13227-3 0 9990 2 17589 70.9180 228.5234 0026853 285.2891 74.5262 14.13018362968471 SL-16 R/B 1 17590U 87027B 25137.51455060 .00000314 00000-0 17974-3 0 9999 2 17590 71.0018 180.5787 0006608 229.5491 130.5057 14.17114299973424 SL-14 R/B 1 17912U 87038B 25137.52619359 .00000572 00000-0 63971-4 0 9998 2 17912 82.5033 215.6740 0020793 65.4995 294.8386 14.85018350 35279 COSMOS 1844 1 17973U 87041A 25137.52125854 -.00000264 00000-0 -11218-3 0 9997 2 17973 70.8992 298.8271 0028539 108.5483 251.8743 14.14473334961704 SL-14 R/B 1 18153U 87055B 25137.41990470 .00000649 00000-0 72659-4 0 9997 2 18153 82.4986 268.1919 0019248 273.2517 86.6497 14.85272494 25951 COSMOS 1867 1 18187U 87060A 25137.50147700 -.00000009 00000-0 34392-4 0 9993 2 18187 65.0117 56.1332 0016504 258.0996 101.8237 14.31447634977532 SL-14 R/B 1 18749U 88001B 25137.39574628 .00000626 00000-0 70031-4 0 9997 2 18749 82.5110 114.0160 0019290 134.5902 225.6892 14.85173674998035 COSMOS 1933 1 18958U 88020A 25137.58105506 .00004214 00000-0 22308-3 0 9996 2 18958 82.5147 183.1392 0005554 135.6171 224.5507 15.15169713 5357 SL-3 R/B 1 19046U 88032B 25137.47763843 .00005359 00000-0 27736-3 0 9991 2 19046 97.4864 118.3893 0028088 180.0981 180.0251 15.16309466 7179 SL-16 R/B 1 19120U 88039B 25137.25516593 -.00000061 00000-0 -61961-5 0 9992 2 19120 71.0149 335.3247 0019742 73.2521 287.0768 14.19558447916313 COSMOS 1953 1 19210U 88050A 25137.61110798 .00009561 00000-0 39640-3 0 9991 2 19210 82.5097 94.8684 0014873 87.6065 272.6875 15.23644268992648 SL-8 R/B 1 19257U 88053B 25137.52812791 .00000286 00000-0 10145-3 0 9991 2 19257 74.0469 298.2516 0020387 194.7405 227.6952 14.38712039934006 COSMOS 1975 1 19573U 88093A 25137.23318271 .00009037 00000-0 38536-3 0 9995 2 19573 82.5241 53.8557 0014529 129.6711 230.5810 15.22693086974214 SL-14 R/B 1 19574U 88093B 25137.47731884 .00000582 00000-0 64812-4 0 9994 2 19574 82.5295 320.0044 0019430 300.3857 119.1871 14.85303419957068 SL-16 R/B 1 19650U 88102B 25137.51502654 .00000314 00000-0 18298-3 0 9995 2 19650 71.0007 54.6472 0012186 104.0654 256.1825 14.16102281884964 INTERCOSMOS 24 1 20261U 89080A 25137.45058509 .00000624 00000-0 18567-3 0 9992 2 20261 82.6043 297.0388 1189434 259.9517 86.5604 12.58984212629515 SL-14 R/B 1 20262U 89080C 25137.57601331 .00000484 00000-0 13767-3 0 9994 2 20262 82.5955 3.3223 1231522 141.5053 228.0754 12.50283962623148 DELTA 1 R/B 1 20323U 89089B 25137.61385585 .00000509 00000-0 13552-3 0 9996 2 20323 97.1076 26.6457 0068866 339.0248 20.8127 14.50376860852819 DELTA 2 R/B(1) 1 20453U 90008B 25137.56270271 .00035066 00000-0 82343-3 0 9992 2 20453 35.6095 275.2184 0142854 87.9905 273.7175 15.31030455880426 COSMOS 2058 1 20465U 90010A 25137.27652171 .00003648 00000-0 23081-3 0 9994 2 20465 82.4793 338.6248 0009531 273.0975 86.9163 15.08697168897511 SL-14 R/B 1 20466U 90010B 25137.49310743 .00000494 00000-0 57425-4 0 9991 2 20466 82.5033 185.4876 0019607 191.5378 168.5390 14.83238004884574 SL-14 R/B 1 20511U 90018B 25137.49708207 .00000548 00000-0 66320-4 0 9990 2 20511 82.5194 139.8842 0016074 352.0337 8.0619 14.81821988878711 HST 1 20580U 90037B 25137.61839466 .00008228 00000-0 31192-3 0 9994 2 20580 28.4681 252.0749 0002929 106.6757 253.4159 15.25008680728011 SL-16 R/B 1 20625U 90046B 25137.56363668 .00000348 00000-0 20406-3 0 9995 2 20625 70.9991 199.7999 0013098 27.2765 332.9042 14.14963036806504 COSMOS 2084 1 20663U 90055A 25137.61995636 .00004753 00000-0 34542-3 0 9999 2 20663 62.7906 263.6073 0065687 151.4831 208.9888 15.03514800891773 SL-6 R/B(2) 1 20666U 90055D 25137.50848055 .00002145 00000-0 17671-3 0 9999 2 20666 62.7817 179.6022 0031349 184.9636 175.1156 15.01916975893681 SL-8 R/B 1 20775U 90078B 25137.48835164 .00013011 00000-0 44041-3 0 9994 2 20775 82.9071 155.1070 0402512 281.4315 74.1955 14.77786148765403 SL-8 R/B 1 21088U 91006B 25137.43112378 .00000129 00000-0 11382-3 0 9992 2 21088 82.9450 30.4359 0023238 142.0805 31.6826 13.77451209723288 OKEAN 3 1 21397U 91039A 25137.46921794 .00003730 00000-0 27773-3 0 9996 2 21397 82.5169 263.2923 0013249 256.5173 103.4576 15.02605255820524 COSMOS 2151 1 21422U 91042A 25137.44041132 .00002048 00000-0 16774-3 0 9996 2 21422 82.4988 9.0474 0012254 348.1880 11.9054 14.98757501818804 SL-14 R/B 1 21423U 91042B 25137.48932009 .00000508 00000-0 61640-4 0 9995 2 21423 82.4910 137.8947 0018305 131.0129 229.2672 14.81520721809212 ERS 1 1 21574U 91050A 25137.48146396 .00000393 00000-0 14097-3 0 9992 2 21574 98.7920 143.2296 0032163 3.1371 357.0012 14.39179143773123 ARIANE 40 R/B 1 21610U 91050F 25137.40379939 .00000464 00000-0 15235-3 0 9990 2 21610 98.2410 195.0408 0001962 236.3629 123.7374 14.42615092776272 INTERCOSMOS 25 1 21819U 91086A 25137.50457082 .00003397 00000-0 66321-3 0 9997 2 21819 82.6001 128.9645 1492060 35.0051 334.0479 12.10908015460828 SL-14 R/B 1 21820U 91086B 25137.26236479 .00000739 00000-0 14501-3 0 9997 2 21820 82.5624 211.2317 1563444 349.1053 7.9469 11.96233381451801 SL-8 R/B 1 21876U 92008B 25137.47828351 .00000164 00000-0 15315-3 0 9998 2 21876 82.9242 128.0707 0033366 240.9603 230.9740 13.75927179668683 SL-8 R/B 1 21938U 92020B 25137.44236066 .00000123 00000-0 11172-3 0 9996 2 21938 82.9327 13.7812 0030144 46.6198 126.3643 13.75501512660405 SL-16 R/B 1 22220U 92076B 25137.61668926 -.00000186 00000-0 -68712-4 0 9999 2 22220 70.9991 92.0170 0013348 196.4170 336.3213 14.16801695679892 SL-16 R/B 1 22285U 92093B 25137.62535255 -.00000075 00000-0 -14262-4 0 9996 2 22285 71.0214 265.7520 0003297 8.5675 351.5504 14.15390597671264 COSMOS 2228 1 22286U 92094A 25137.47991258 .00002185 00000-0 19394-3 0 9992 2 22286 82.5176 160.5303 0017619 214.4014 145.6068 14.95610829731768 SL-16 R/B 1 22566U 93016B 25137.35380718 -.00000034 00000-0 72494-5 0 9992 2 22566 71.0049 117.5488 0008524 46.3125 313.8702 14.15251747660247 COSMOS 2242 1 22626U 93024A 25137.54597621 .00002136 00000-0 19234-3 0 9997 2 22626 82.5203 189.5642 0015869 216.1895 143.8254 14.95073561736123 SL-16 R/B 1 22803U 93059B 25137.52328591 -.00000165 00000-0 -58024-4 0 9991 2 22803 70.9903 275.6503 0019138 297.9151 62.0034 14.17171777637575 ARIANE 40 R/B 1 22830U 93061H 25137.52395066 .00000325 00000-0 13560-3 0 9996 2 22830 98.5277 206.5820 0011941 82.5059 277.7481 14.32648426651696 COSMOS 2278 1 23087U 94023A 25137.25576552 -.00000159 00000-0 -58590-4 0 9991 2 23087 71.0537 75.2511 0006827 132.1620 228.0084 14.14295116602897 SL-16 R/B 1 23088U 94023B 25137.44002658 .00000275 00000-0 16666-3 0 9998 2 23088 70.9999 333.0123 0002842 350.5517 9.5552 14.14962259604181 SL-16 R/B 1 23343U 94074B 25137.36081287 .00000645 00000-0 93898-4 0 9998 2 23343 97.7413 174.6713 0008141 103.5533 267.9112 14.79013626643449 SL-16 R/B 1 23405U 94077B 25137.60778951 -.00000221 00000-0 -88440-4 0 9997 2 23405 70.9832 255.3598 0004913 261.8999 98.1566 14.15515721574332 ARIANE 40+ R/B 1 23561U 95021B 25137.45152317 .00000426 00000-0 15058-3 0 9994 2 23561 98.4843 207.3045 0005755 316.4446 66.0770 14.39513548576621 SL-16 R/B 1 23705U 95058B 25137.60002889 .00000286 00000-0 17095-3 0 9996 2 23705 71.0207 81.8655 0013896 218.2172 141.7967 14.15445127525954 SL-16 R/B 1 24298U 96051B 25137.28078383 -.00000175 00000-0 -67910-4 0 9995 2 24298 70.7696 82.5305 0017271 219.2686 140.7182 14.12422520479799 ORBVIEW 2 (SEASTAR) 1 24883U 97037A 25137.43378331 .00000386 00000-0 15119-3 0 9998 2 24883 98.8225 289.5642 0001970 182.6075 177.5100 14.35234998465973 SL-16 R/B 1 25400U 98043G 25137.56246951 .00000106 00000-0 63185-4 0 9995 2 25400 98.7864 84.5856 0010344 148.1190 212.0617 14.25966824396786 SL-16 R/B 1 25407U 98045B 25137.26151115 .00000057 00000-0 52827-4 0 9994 2 25407 71.0102 84.9278 0005676 128.5183 231.6450 14.16135721385133 ISS (ZARYA) 1 25544U 98067A 25137.37867795 .00009856 00000-0 18315-3 0 9999 2 25544 51.6353 99.6980 0002289 118.7619 241.3599 15.49573655510380 CZ-4B R/B 1 25732U 99025C 25137.50766613 .00000090 00000-0 64320-4 0 9994 2 25732 98.7016 183.0969 0038233 115.6776 12.0709 14.18185106346186 OKEAN O 1 25860U 99039A 25137.59872739 .00000936 00000-0 13145-3 0 9994 2 25860 97.9851 194.7797 0001225 115.8665 244.2673 14.79761490390590 SL-16 R/B 1 25861U 99039B 25137.59719881 .00000818 00000-0 11171-3 0 9999 2 25861 98.0379 191.3864 0015967 133.9869 226.2663 14.81246448393025 TERRA 1 25994U 99068A 25137.63088480 .00000623 00000-0 13713-3 0 9995 2 25994 97.9996 196.6293 0003295 59.3309 93.5828 14.60680453351858 ENVISAT 1 27386U 02009A 25137.62518628 .00000170 00000-0 68814-4 0 9992 2 27386 98.3322 94.0629 0001219 90.8329 82.0140 14.38911955216593 IDEFIX/ARIANE 42P 1 27422U 02021B 25137.42689990 .00000374 00000-0 15934-3 0 9996 2 27422 98.5602 75.1525 0011642 346.0851 14.0010 14.30777438201659 AQUA 1 27424U 02022A 25137.62071830 .00001222 00000-0 25774-3 0 9995 2 27424 98.3762 95.5916 0001964 98.1921 74.8918 14.61247394225480 CZ-4B R/B 1 27432U 02024C 25137.12511407 .00000054 00000-0 50761-4 0 9997 2 27432 98.9254 186.2547 0050889 143.8106 270.8303 14.14480535187311 ADEOS 2 1 27597U 02056A 25137.58506285 .00000443 00000-0 19268-3 0 9990 2 27597 98.7365 89.8436 0001885 110.0408 250.0976 14.29030107168005 H-2A R/B 1 27601U 02056E 25137.51058889 .00000414 00000-0 16064-3 0 9990 2 27601 98.2775 105.0027 0069815 325.4196 142.7649 14.33493211171676 CZ-4B R/B 1 28059U 03049C 25137.50545420 .00000600 00000-0 14983-3 0 9997 2 28059 98.6578 116.4382 0049518 56.4534 304.1377 14.54659861143538 CZ-2C R/B 1 28222U 04012C 25137.06375488 .00018201 00000-0 40667-3 0 9990 2 28222 97.7683 174.3780 0021972 310.0046 49.9271 15.43324143158289 SL-16 R/B 1 28353U 04021B 25137.44851109 .00000366 00000-0 21555-3 0 9994 2 28353 70.9988 134.1517 0003731 150.7797 209.3534 14.14547564 80944 CZ-2C R/B 1 28480U 04046B 25137.49914589 .00000285 00000-0 12187-3 0 9990 2 28480 98.1937 66.0119 0138785 311.1576 47.7698 14.26823685 66266 ARIANE 5 R/B 1 28499U 04049H 25137.39183619 .00001311 00000-0 15342-3 0 9991 2 28499 98.2307 290.5701 0084468 230.5430 128.8289 14.84446374101829 CZ-2D R/B 1 28738U 05024B 25137.48398646 .00023923 00000-0 54796-3 0 9998 2 28738 97.3685 141.2130 0007582 45.3427 314.8437 15.42745182 93907 ALOS 1 28931U 06002A 25137.58479028 .00002040 00000-0 35920-3 0 9990 2 28931 98.0829 91.0898 0002005 105.3300 254.8127 14.68638876 30004 H-2A R/B 1 28932U 06002B 25137.29333975 .00010211 00000-0 59757-3 0 9992 2 28932 98.2085 256.0915 0059772 164.9211 195.3816 15.10534463 49615 RESURS DK-1 1 29228U 06021A 25137.56082057 .00003160 00000-0 19576-3 0 9994 2 29228 69.9342 281.7815 0007114 234.7371 125.3129 15.10853090 42775 GENESIS 1 1 29252U 06029A 25137.59307941 .00216923 23528-4 80809-3 0 9998 2 29252 64.4981 88.0152 0027233 288.6827 71.1374 15.87193495 42603 CZ-4B R/B 1 29507U 06046C 25137.46486103 .00005945 00000-0 33036-3 0 9990 2 29507 97.5971 178.1643 0035140 208.6785 151.2515 15.13554024 15198 CZ-2C R/B 1 31114U 07010B 25137.60901666 .00000156 00000-0 90328-4 0 9998 2 31114 98.3754 261.0611 0060240 75.6623 285.1233 14.20120959937697 SKYMED 1 1 31598U 07023A 25137.58011717 .00000844 00000-0 98970-4 0 9999 2 31598 97.8875 322.0882 0001305 90.8765 269.2600 14.87601660970663 GENESIS 2 1 31789U 07028A 25137.55556795 .00104239 00000-0 70965-3 0 9999 2 31789 64.4749 139.9776 0021599 314.7544 45.1847 15.74024079989284 COSMOS 2428 1 31792U 07029A 25137.60097718 .00000097 00000-0 78196-4 0 9997 2 31792 70.9338 104.8845 0005680 294.2808 65.7719 14.12845236922279 SL-16 R/B 1 31793U 07029B 25137.55567153 -.00000018 00000-0 15504-4 0 9995 2 31793 70.9749 74.8496 0001786 267.8768 265.0422 14.14778296923481 KORONAS-FOTON 1 33504U 09003A 25137.48999949 .00013930 00000-0 39163-3 0 9997 2 33504 82.4339 221.8989 0013534 135.2877 224.9460 15.36281691900170 H-2A R/B 1 38341U 12025E 25137.54256294 .00002499 00000-0 24281-3 0 9998 2 38341 98.4365 77.3497 0045995 198.6826 161.2705 14.92875373704007 ALOS 2 1 39766U 14029A 25137.55462392 .00002261 00000-0 30950-3 0 9992 2 39766 97.9223 235.3955 0001594 96.5759 263.5634 14.79480191593085 ASTRO H 1 41337U 16012A 25137.59859455 .00003735 00000-0 23148-3 0 9995 2 41337 30.9997 103.8864 0010295 240.4963 119.4648 15.07897833507479